Regional Weather Roundup
Issued by NWS

Home | Current Version | Previous Version | Graphics & Text | Print | Product List | Glossary On
Versions: 1 2 3 4 5 6 7 8 9 10 11 12 13 14 15 16 17 18 19 20 21 22 23 24 25 26 27 28 29 30 31 32 33 34 35 36 37 38 39 40 41 42 43 44 45 46 47 48 49 50
731
ASUS43 KLOT 221103
RWRIL

ILLINOIS REGIONAL WEATHER ROUNDUP
NATIONAL WEATHER SERVICE CHICAGO/ROMEOVILLE IL
600 AM CDT TUE AUG 22 2017

NOTE: "FAIR" INDICATES FEW OR NO CLOUDS BELOW 12,000 FEET WITH NO
SIGNIFICANT WEATHER AND/OR OBSTRUCTIONS TO VISIBILITY.

* THESE STATIONS ARE NOT UNDER NWS QUALITY CONTROL. THEY ALSO MAY NOT
  REPORT WEATHER SUCH AS PRECIPITATION OR FOG.

ILZ001-002-007-009-015-016-024-221200-
NORTHWEST ILLINOIS

CITY           SKY/WX    TMP DP  RH WIND       PRES   REMARKS
MOLINE         CLOUDY    69  65  86 W6        29.91S
STERLING*      CLOUDY    69  66  90 W6        29.90S
SAVANNA*       CLOUDY    68  65  91 W3        29.89S
$$

ILZ003-004-008-010-011-017-018-221200-
NORTH CENTRAL ILLINOIS

CITY           SKY/WX    TMP DP  RH WIND       PRES   REMARKS
ROCKFORD       CLOUDY    68  64  87 W6        29.89R
FREEPORT*      CLOUDY    66  64  93 CALM      29.90S
ROCHELLE*      CLOUDY    67  67  98 W6        29.90R
$$

ILZ005-006-012>014-019>023-221200-
NORTHEAST ILLINOIS

CITY           SKY/WX    TMP DP  RH WIND       PRES   REMARKS
CHICAGO-OHARE  CLOUDY    72  67  84 W8        29.86S
CHICAGO-MIDWAY LGT RAIN  71  69  93 SW13      29.88R
AURORA         CLOUDY    70  68  93 SW8       29.89R
LANSING*       LGT RAIN  69  66  88 SW8       29.90R
JOLIET*        CLOUDY    71  70  96 SW5       29.90R
WAUKEGAN       CLOUDY    71  65  81 W7        29.83S
DUPAGE AIRPORT MOCLDY    70  69  97 SW6       29.87S
KANKAKEE*      RAIN      70  70 100 SW3       29.92F
WHEELING       CLOUDY    72  67  84 W6        29.86F
MORRIS*        CLOUDY    69  67  94 W7        29.91R
NORTHERLY ISL    N/A     72  68  87 W1          N/A
$$

LMZ740>746-221200-
SOUTHERN LAKE MICHIGAN

STATION/POSITION SKY/WX   TEMP    WIND        PRES    VSBY  WAVE
                          AIR SEA DIR/SP/G                  HT/PER
                          (F)     (DEG/KT/KT) (MB)    (MI)  (FT/S)
SOUTHERN BUOY              73 72  250/ 16/ 21 1009.1          4/ 6
WILMETTE HARBOR            74 74  270/ 12/ 17   N/A           2/ 2
HARRISON CRIB              74     270/ 12/ 14   N/A
CALUMET HARBOR             71     220/  4/  9 1010.6F
BURNS HARBOR               72     230/ 13/ 17 1012.2F
MICHIGAN CITY              72     220/ 19/ 21   N/A
MICHIGAN CITY 6N           73 74  240/ 16/ 21   N/A           4/ 4
ST. JOSEPH                 73 73  250/ 19/ 25 1010.9S         5/ 5
$$

ILZ025>027-034>036-040-047-049-050-058-095>099-221200-
WEST-CENTRAL ILLINOIS

CITY           SKY/WX    TMP DP  RH WIND       PRES   REMARKS
QUINCY         LGT RAIN  67  65  93 S7        29.92F
GALESBURG*     CLOUDY    67  66  97 W5        29.95R
MACOMB*        LGT RAIN  67  67  98 SW8G17    29.92F
JACKSONVILLE*  RAIN      67  67  98 CALM      29.94F
$$

ILZ028>032-037-038-041>044-048-051>054-059>061-221200-
CENTRAL ILLINOIS

CITY           SKY/WX    TMP DP  RH WIND       PRES   REMARKS
BLOOMINGTON    LGT RAIN  68  67  96 SW7       29.95S
DECATUR        CLOUDY    69  67  93 W3        29.96F
PEORIA         LGT RAIN  68  68 100 S6        29.90F
LACON*         DRIZZLE   67  67 100 CALM      29.91R
LINCOLN*       LGT RAIN  69  69 100 S3        29.94S
SPRINGFIELD    LGT RAIN  70  69  97 SW6       29.96R
TAYLORVILLE    NOT AVBL
$$

ILZ033-039-045-046-055>057-062-063-221200-
EAST-CENTRAL ILLINOIS

CITY           SKY/WX    TMP DP  RH WIND       PRES   REMARKS
CHAMPAIGN      LGT RAIN  69  67  93 NW3       29.96S
RANTOUL*       RAIN      69  69  99 CALM      29.95F
MATTOON        RAIN      71  71 100 NW15      29.96R
PARIS*         CLOUDY    74  72  93 NW10G18   29.96R
$$

ILZ079-100>102-221200-
SOUTHWEST ILLINOIS

CITY           SKY/WX    TMP DP  RH WIND       PRES   REMARKS
ALTON          CLOUDY    70  70 100 CALM      29.97F
BELLEVILLE     CLOUDY    73  68  83 NE7       29.97S
CAHOKIA*       CLOUDY    76  67  73 N9        29.96S
SPARTA*        CLOUDY    76  73  88 S6        29.97S
$$

ILZ064>066-069>071-074>076-080>082-084>086-088>090-092>094-221200-
SOUTH-CENTRAL ILLINOIS

CITY           SKY/WX    TMP DP  RH WIND       PRES   REMARKS
CARBONDALE     CLOUDY    77  75  93 SW9       29.97R
CAIRO*         PTCLDY    76  74  94 SW5       30.00S
EFFINGHAM*     HVY RAIN  72  72  98 NW8       30.00R
MARION         CLOUDY    79  79 100 SW7       29.98F HX  83
MT. VERNON       N/A     76  74  93 SW8       29.96S
CENTRALIA*     CLOUDY    76  71  85 N13G18    29.97R
SALEM*         CLOUDY    74  68  81 N6        29.99R
METROPOLIS*    PTCLDY    78  75  90 SW5       30.01R HX  80
$$

ILZ067-068-072-073-078-083-087-091-221200-
SOUTHEAST ILLINOIS

CITY           SKY/WX    TMP DP  RH WIND       PRES   REMARKS
LAWRENCEVILLE  CLOUDY    74  73  97 S7        29.95F
FLORA*         MOCLDY    76  74  94 W7        29.97R
FAIRFIELD*     MOCLDY    73  73 100 S3        29.95R
HARRISBURG*    MOCLDY    76  74  95 SW3       29.99R
ROBINSON*      PTCLDY    74  73  95 SW7       29.95R
CARMI*         MOCLDY    73  73 100 S5        29.97S FOG
$$

ABBREVIATIONS USED IN REMARKS
   TC - TEMPERATURE IN CELSIUS
  WCI - WIND CHILL INDEX
   HX - HEAT INDEX
  VSB - VISIBILITY
$$





USA.gov is the U.S. government's official web portal to all federal, state and local government web resources and services.